[Date Prev][Date Next][Thread Prev][Thread Next] - [Date Index][Thread Index][Author Index]
2 Line ISS Keps 11-20
- Subject: [sarex] 2 Line ISS Keps 11-20
- From: "Dave Larsen PhD" <doc@xxxxxxxxxxx>
- Date: Thu, 20 Nov 2003 02:03:08 -0800
ISS
1 25544U 98067A 03324.17407631 .00020160 00000-0 21205-3 0 7902
2 25544 51.6306 313.5360 0006352 153.8187 305.9952 15.64275523285382
----
Via the sarex mailing list at AMSAT.ORG courtesy of AMSAT-NA.
To unsubscribe, send "unsubscribe sarex" to Majordomo@amsat.org
AMSAT Home